Latest Weather Observations for Bankstown

IDN60901

Issued at 6:25 pm EST Wednesday 1 October 2014 (issued every 10 minutes, with the page automatically refreshed every 10 minutes)

About weather observations | Map of Sydney area stations | Latest observations for Sydney area | Other Formats
Station Details ID: 066137 Name: BANKSTOWN AIRPORT AWS Lat: -33.92 Lon: 150.99 Height: 6.5 m
Data from the previous 72 hours. | See also: Recent months at Bankstown
Date/Time
EST
Tmp

°C
App
Tmp
°C
Dew
Point
°C
Rel
Hum
%
Delta-T

°C
Wind Press
QNH
hPa
Press
MSL
hPa
Rain
since
9 am
mm
Dir
 
Spd
km/h
Gust
km/h
Spd
kts
Gust
kts
01/06:00pm 15.9 9.5 1.2 37 6.4 SE 24 32 13 17 1020.5 1020.5 0.0
01/05:30pm 16.5 9.7 1.0 35 6.8 SE 26 39 14 21 1020.5 1020.5 0.0
01/05:00pm 17.1 10.4 1.5 35 6.9 SE 26 33 14 18 1020.0 1020.0 0.0
01/04:30pm 17.8 10.6 0.5 31 7.6 SE 28 35 15 19 1019.5 1019.5 0.0
01/04:00pm 18.4 10.7 -0.4 28 8.1 SE 30 35 16 19 1019.0 1019.0 0.0
01/03:30pm 18.7 11.7 -0.2 28 8.2 SE 26 33 14 18 1018.6 1018.6 0.0
01/03:00pm 18.9 12.0 0.0 28 8.2 SE 26 35 14 19 1018.4 1018.4 0.0
01/02:30pm 19.4 12.2 0.4 28 8.4 SE 28 41 15 22 1018.4 1018.4 0.0
01/02:00pm 19.0 11.0 -2.0 24 8.8 SE 30 39 16 21 1018.2 1018.2 0.0
01/01:30pm 21.0 14.4 -6.6 15 10.8 SSW 20 28 11 15 1018.1 1018.1 0.0
01/01:00pm 20.8 13.8 -6.7 15 10.7 SSW 22 35 12 19 1018.2 1018.2 0.0
01/12:30pm 20.2 12.2 -10.1 12 10.9 S 26 39 14 21 1018.3 1018.3 0.0
01/12:00pm 20.3 12.1 -8.0 14 10.6 SW 28 35 15 19 1018.5 1018.5 0.0
01/11:30am 19.7 12.9 -9.5 13 10.6 SW 20 30 11 16 1018.3 1018.3 0.0
01/11:00am 19.1 12.5 -7.3 16 9.9 WSW 20 32 11 17 1018.2 1018.2 0.0
01/10:30am 19.3 11.2 -6.3 17 9.9 SW 28 41 15 22 1018.2 1018.2 0.0
01/10:00am 17.7 9.6 -6.9 18 9.2 SW 28 41 15 22 1018.2 1018.2 0.0
01/09:30am 18.2 9.8 -5.8 19 9.2 SW 30 44 16 24 1018.3 1018.3 0.0
01/09:09am 17.9 9.9 -5.3 20 9.0 SW 28 46 15 25 1018.1 1018.1 0.0
01/09:00am 17.3 8.5 -5.8 20 8.8 SW 32 44 17 24 1018.2 1018.2 0.0
01/08:30am 16.6 9.4 -5.2 22 8.4 SW 24 35 13 19 1017.8 1017.8 0.0
01/08:00am 16.1 7.6 -3.4 26 7.7 WSW 32 50 17 27 1017.1 1017.1 0.0
01/07:39am 15.4 6.7 -3.0 28 7.3 SW 33 52 18 28 1017.0 1017.0 0.0
01/07:30am 15.4 6.9 -3.0 28 7.3 SW 32 41 17 22 1016.8 1016.8 0.0
01/07:11am 15.0 6.0 -2.4 30 7.0 SW 35 54 19 29 1016.5 1016.5 0.0
01/07:00am 14.9 5.9 -2.5 30 6.9 SW 35 48 19 26 1016.2 1016.2 0.0
01/06:37am 14.8 6.8 -2.6 30 6.9 WSW 30 48 16 26 1015.9 1015.9 0.0
01/06:30am 14.9 6.9 -2.5 30 6.9 WSW 30 41 16 22 1015.7 1015.7 0.0
01/06:16am 14.8 7.1 -3.0 29 7.0 WSW 28 46 15 25 1015.7 1015.7 0.0
01/06:00am 14.9 6.8 -3.4 28 7.2 WSW 30 43 16 23 1015.4 1015.4 0.0
01/05:30am 15.2 8.1 -4.2 26 7.5 SSW 24 35 13 19 1014.9 1014.9 0.0
01/05:00am 16.3 7.0 -5.4 22 8.3 SW 35 61 19 33 1014.2 1014.2 0.0
01/04:30am 17.4 9.4 -2.3 26 8.1 SW 30 48 16 26 1012.8 1012.8 0.0
01/04:19am 17.8 10.4 -0.5 29 7.8 SW 28 52 15 28 1012.7 1012.7 0.0
01/04:00am 18.0 10.9 1.1 32 7.5 SW 28 41 15 22 1012.1 1012.1 0.0
01/03:46am 18.2 11.3 2.5 35 7.2 SW 28 46 15 25 1012.0 1012.0 0.0
01/03:30am 18.7 11.6 3.3 36 7.2 SW 30 46 16 25 1011.7 1011.7 0.0
01/03:14am 18.9 12.2 3.9 37 7.1 SSW 28 46 15 25 1011.6 1011.6 0.0
01/03:00am 19.2 11.8 4.2 37 7.2 SW 32 46 17 25 1011.4 1011.4 0.0
01/02:30am 20.1 12.0 3.3 33 7.9 SW 35 54 19 29 1010.4 1010.4 0.0
01/02:09am 21.6 14.7 2.3 28 9.0 SW 28 56 15 30 1009.3 1009.3 0.0
01/02:00am 21.1 16.5 1.4 27 9.0 SW 15 28 8 15 1008.9 1008.9 0.0
01/01:54am 21.4 17.4 2.6 29 8.9 WSW 13 28 7 15 1008.7 1008.7 0.0
01/01:30am 16.3 13.8 4.7 46 5.5 SSW 7 11 4 6 1008.2 1008.2 0.0
01/01:00am 18.9 17.3 2.3 33 7.6 CALM 0 0 0 0 1007.4 1007.4 0.0
01/12:30am 23.6 19.3 1.3 23 10.4 NNW 13 17 7 9 1007.3 1007.3 0.0
01/12:00am 23.6 19.1 1.9 24 10.3 NNW 15 20 8 11 1007.2 1007.2 0.0
 
Date/Time
EST
Tmp

°C
App
Tmp
°C
Dew
Point
°C
Rel
Hum
%
Delta-T

°C
Wind Press
QNH
hPa
Press
MSL
hPa
Rain
since
9 am
mm
Dir
 
Spd
km/h
Gust
km/h
Spd
kts
Gust
kts
30/11:30pm 23.6 20.4 3.0 26 9.9 NW 9 19 5 10 1007.3 1007.3 0.0
30/11:00pm 24.4 20.7 2.5 24 10.5 NNW 11 15 6 8 1007.3 1007.3 0.0
30/10:30pm 25.6 20.4 2.3 22 11.2 NW 19 37 10 20 1007.5 1007.5 0.0
30/10:00pm 25.9 21.7 3.8 24 11.0 WNW 15 24 8 13 1007.6 1007.6 0.0
30/09:30pm 22.4 19.8 4.0 30 9.0 NW 7 11 4 6 1007.3 1007.3 0.0
30/09:00pm 25.7 21.6 2.4 22 11.3 NNW 13 17 7 9 1007.2 1007.2 0.0
30/08:30pm 24.9 21.3 3.0 24 10.6 NNW 11 15 6 8 1007.3 1007.3 0.0
30/08:00pm 25.1 21.0 2.5 23 10.9 NW 13 17 7 9 1007.3 1007.3 0.0
30/07:30pm 26.5 22.6 1.0 19 12.1 NNW 11 15 6 8 1007.3 1007.3 0.0
30/07:00pm 27.4 23.0 0.2 17 12.8 NW 13 17 7 9 1007.3 1007.3 0.0
30/06:30pm 30.0 22.5 -1.4 13 14.6 WNW 28 43 15 23 1007.0 1007.0 0.0
30/06:00pm 30.7 22.2 -3.1 11 15.4 WNW 32 52 17 28 1006.5 1006.5 0.0
30/05:47pm 30.9 22.4 -3.0 11 15.5 NW 32 52 17 28 1006.3 1006.3 0.0
30/05:30pm 31.1 23.6 -1.6 12 15.3 WNW 28 41 15 22 1006.6 1006.6 0.0
30/05:00pm 31.4 24.8 -0.3 13 15.2 W 24 37 13 20 1006.7 1006.7 0.0
30/04:34pm 32.3 24.0 -1.9 11 16.1 WNW 32 50 17 27 1006.4 1006.4 0.0
30/04:30pm 32.4 23.5 -1.8 11 16.1 WNW 35 50 19 27 1006.5 1006.5 0.0
30/04:02pm 32.8 24.4 -2.8 10 16.5 WNW 32 52 17 28 1006.6 1006.6 0.0
30/04:00pm 32.8 24.9 -1.5 11 16.3 WNW 30 46 16 25 1006.7 1006.7 0.0
30/03:33pm 33.4 25.4 -2.3 10 16.8 WNW 30 48 16 26 1006.6 1006.6 0.0
30/03:30pm 33.4 25.0 -2.3 10 16.8 WNW 32 48 17 26 1006.6 1006.6 0.0
30/03:00pm 34.0 27.2 0.6 12 16.6 NW 26 39 14 21 1006.7 1006.7 0.0
30/02:30pm 33.8 25.6 -0.7 11 16.7 WNW 32 44 17 24 1007.1 1007.1 0.0
30/02:00pm 33.8 26.2 0.5 12 16.5 NW 30 44 16 24 1007.8 1007.8 0.0
30/01:30pm 33.7 25.3 -0.8 11 16.7 WNW 33 50 18 27 1008.2 1008.2 0.0
30/01:00pm 33.2 26.9 4.0 16 15.2 NNW 26 37 14 20 1008.5 1008.5 0.0
30/12:30pm 32.3 26.0 5.7 19 14.2 N 28 44 15 24 1009.2 1009.2 0.0
30/12:00pm 29.8 24.8 6.5 23 12.4 N 22 35 12 19 1010.0 1010.0 0.0
30/11:30am 26.8 23.2 6.8 28 10.5 NNW 15 22 8 12 1010.8 1010.8 0.0
30/11:00am 26.5 22.5 6.5 28 10.5 N 17 22 9 12 1011.4 1011.4 0.0
30/10:30am 26.5 22.1 6.5 28 10.5 NNW 19 24 10 13 1012.0 1012.0 0.0
30/10:00am 26.7 23.1 6.7 28 10.5 NNW 15 22 8 12 1012.4 1012.4 0.0
30/09:30am 25.7 22.0 6.3 29 10.1 NNW 15 22 8 12 1013.0 1013.0 0.0
30/09:00am 23.2 22.9 11.3 47 6.6 S 4 7 2 4 1013.3 1013.3 0.0
30/08:30am 20.1 19.3 11.1 56 4.9 SSE 6 7 3 4 1013.5 1013.5 0.0
30/08:00am 18.5 19.1 11.8 65 3.7 CALM 0 9 0 5 1013.9 1013.9 0.0
30/07:30am 15.4 14.6 11.0 75 2.3 SSE 6 7 3 4 1013.6 1013.6 0.0
30/07:00am 14.1 14.2 11.6 85 1.3 S 2 6 1 3 1013.6 1013.6 0.0
30/06:30am 12.2 12.3 10.1 87 1.1 CALM 0 0 0 0 1013.6 1013.6 0.0
30/06:00am 12.6 12.8 10.7 88 1.0 CALM 0 0 0 0 1013.2 1013.2 0.0
30/05:30am 11.8 11.8 9.7 87 1.1 CALM 0 0 0 0 1013.0 1013.0 0.0
30/05:00am 12.9 13.2 11.0 88 1.0 CALM 0 0 0 0 1012.8 1012.8 0.0
30/04:30am 12.5 12.7 10.4 87 1.1 CALM 0 0 0 0 1012.9 1012.9 0.0
30/04:00am 12.8 13.1 10.9 88 1.0 CALM 0 0 0 0 1012.9 1012.9 0.0
30/03:30am 13.4 13.9 11.6 89 1.0 CALM 0 0 0 0 1013.0 1013.0 0.0
30/03:00am 12.9 13.2 11.0 88 1.0 CALM 0 0 0 0 1013.2 1013.2 0.0
30/02:30am 13.5 14.0 11.6 88 1.0 CALM 0 0 0 0 1013.5 1013.5 0.0
30/02:00am 14.0 14.6 12.0 88 1.1 CALM 0 0 0 0 1013.6 1013.6 0.0
30/01:30am 14.1 14.6 11.6 85 1.3 CALM 0 4 0 2 1013.8 1013.8 0.0
30/01:00am 15.0 15.1 11.6 80 1.8 SE 2 6 1 3 1014.1 1014.1 0.0
30/12:30am 17.1 16.5 13.4 79 2.1 ESE 9 11 5 6 1014.4 1014.4 0.0
30/12:00am 17.3 16.5 13.0 76 2.4 ESE 9 11 5 6 1014.6 1014.6 0.0
 
Date/Time
EST
Tmp

°C
App
Tmp
°C
Dew
Point
°C
Rel
Hum
%
Delta-T

°C
Wind Press
QNH
hPa
Press
MSL
hPa
Rain
since
9 am
mm
Dir
 
Spd
km/h
Gust
km/h
Spd
kts
Gust
kts
29/11:30pm 17.9 17.6 13.2 74 2.6 NE 7 11 4 6 1014.7 1014.7 0.0
29/11:00pm 18.0 17.8 12.9 72 2.9 NE 6 9 3 5 1014.7 1014.7 0.0
29/10:30pm 18.6 18.3 12.8 69 3.3 NNE 6 9 3 5 1014.8 1014.8 0.0
29/10:00pm 19.3 18.4 12.6 65 3.8 ENE 9 15 5 8 1014.8 1014.8 0.0
29/09:30pm 19.9 19.2 11.9 60 4.4 NE 7 11 4 6 1014.8 1014.8 0.0
29/09:00pm 20.4 19.7 11.9 58 4.7 ENE 7 9 4 5 1014.8 1014.8 0.0
29/08:30pm 21.1 19.5 11.4 54 5.4 ESE 11 13 6 7 1014.6 1014.6 0.0
29/08:00pm 21.9 19.1 10.1 47 6.4 SE 15 20 8 11 1014.4 1014.4 0.0
29/07:30pm 24.5 21.8 5.8 30 9.5 SE 9 13 5 7 1013.9 1013.9 0.0
29/07:00pm 25.7 22.7 4.2 25 10.7 WNW 9 13 5 7 1013.3 1013.3 0.0
29/06:30pm 26.3 23.4 4.7 25 10.9 WNW 9 15 5 8 1012.8 1012.8 0.0
29/06:00pm 27.5 23.7 3.9 22 11.9 NW 13 17 7 9 1012.4 1012.4 0.0
29/05:30pm 28.8 25.1 4.3 21 12.5 WNW 13 19 7 10 1012.0 1012.0 0.0
29/05:00pm 29.6 25.1 4.3 20 13.0 WNW 17 22 9 12 1011.6 1011.6 0.0
29/04:30pm 30.7 26.1 3.7 18 13.8 WNW 17 28 9 15 1011.2 1011.2 0.0
29/04:00pm 31.0 25.4 1.4 15 14.6 WNW 20 32 11 17 1010.9 1010.9 0.0
29/03:30pm 31.2 24.9 1.5 15 14.7 NW 24 37 13 20 1010.6 1010.6 0.0
29/03:00pm 31.5 25.9 3.5 17 14.3 NW 22 32 12 17 1010.6 1010.6 0.0
29/02:30pm 31.3 26.1 3.4 17 14.2 NW 20 32 11 17 1010.9 1010.9 0.0
29/02:00pm 31.0 26.1 2.3 16 14.4 WNW 17 28 9 15 1011.2 1011.2 0.0
29/01:30pm 31.1 26.6 4.0 18 14.0 WNW 17 24 9 13 1011.7 1011.7 0.0
29/01:00pm 31.3 26.2 4.2 18 14.0 W 20 28 11 15 1012.0 1012.0 0.0
29/12:30pm 30.1 25.9 4.0 19 13.4 WNW 15 22 8 12 1012.3 1012.3 0.0
29/12:00pm 30.1 26.5 3.2 18 13.6 W 11 17 6 9 1012.8 1012.8 0.0
29/11:30am 28.8 24.0 5.6 23 12.1 NNW 20 24 11 13 1013.1 1013.1 0.0
29/11:00am 27.7 23.2 4.1 22 11.9 WNW 17 26 9 14 1013.5 1013.5 0.0
29/10:30am 27.1 23.5 4.8 24 11.4 NW 13 20 7 11 1013.7 1013.7 0.0
29/10:00am 26.1 21.8 5.1 26 10.7 WNW 17 20 9 11 1014.0 1014.0 0.0
29/09:30am 25.2 21.3 5.4 28 10.1 NW 15 19 8 10 1014.2 1014.2 0.0
29/09:00am 23.2 23.1 9.6 42 7.4 CALM 0 0 0 0 1014.4 1014.4 0.0
29/08:30am 20.0 19.0 9.0 49 5.8 SSE 4 7 2 4 1014.6 1014.6 0.0
29/08:00am 17.7 17.2 9.3 58 4.4 SSE 2 7 1 4 1014.4 1014.4 0.0
29/07:30am 15.6 15.5 9.5 67 3.2 CALM 0 4 0 2 1014.3 1014.3 0.0
29/07:00am 13.1 11.7 9.0 76 2.1 SSE 6 7 3 4 1014.3 1014.3 0.0
29/06:30am 11.9 10.0 9.1 83 1.4 SSE 9 11 5 6 1014.2 1014.2 0.0
29/06:00am 10.5 9.5 7.4 81 1.5 SSE 2 6 1 3 1013.9 1013.9 0.0
29/05:30am 11.1 10.3 8.1 82 1.5 SSE 2 6 1 3 1013.9 1013.9 0.0
29/05:00am 11.3 9.9 9.0 86 1.1 SSE 6 7 3 4 1013.6 1013.6 0.0
29/04:30am 10.5 9.0 8.6 88 0.9 SSE 6 9 3 5 1013.4 1013.4 0.0
29/04:00am 11.0 10.1 9.3 89 0.8 S 4 9 2 5 1013.3 1013.3 0.0
29/03:30am 11.5 10.4 9.9 90 0.8 W 6 7 3 4 1013.3 1013.3 0.0
29/03:00am 10.5 10.2 8.6 88 0.9 CALM 0 0 0 0 1013.7 1013.7 0.0
29/02:30am 10.6 10.3 8.5 87 1.0 CALM 0 0 0 0 1014.1 1014.1 0.0
29/02:00am 10.4 9.9 8.0 85 1.2 CALM 0 0 0 0 1014.8 1014.8 0.0
29/01:30am 11.7 10.5 9.4 86 1.2 SSW 6 7 3 4 1015.1 1015.1 0.0
29/01:00am 11.1 9.4 8.3 83 1.4 W 7 11 4 6 1015.2 1015.2 0.0
29/12:30am 11.7 10.6 8.6 81 1.5 N 4 7 2 4 1015.1 1015.1 0.0
29/12:00am 14.3 13.0 10.1 76 2.2 NNE 7 9 4 5 1015.1 1015.1 0.0
 
Date/Time
EST
Tmp

°C
App
Tmp
°C
Dew
Point
°C
Rel
Hum
%
Delta-T

°C
Wind Press
QNH
hPa
Press
MSL
hPa
Rain
since
9 am
mm
Dir
 
Spd
km/h
Gust
km/h
Spd
kts
Gust
kts
28/11:30pm 13.5 13.5 9.7 78 1.9 CALM 0 0 0 0 1015.9 1015.9 0.0
28/11:00pm 13.3 12.8 9.4 77 2.0 NNW 2 6 1 3 1016.3 1016.3 0.0
28/10:30pm 14.4 14.5 10.0 75 2.3 CALM 0 0 0 0 1016.6 1016.6 0.0
28/10:00pm 15.0 14.2 9.6 70 2.8 NW 4 6 2 3 1016.7 1016.7 0.0
28/09:30pm 14.7 13.3 8.9 68 2.9 NW 6 7 3 4 1016.6 1016.6 0.0
28/09:00pm 17.7 16.4 9.3 58 4.4 N 6 9 3 5 1016.5 1016.5 0.0
28/08:30pm 18.4 16.7 9.7 57 4.6 NNE 9 17 5 9 1016.5 1016.5 0.0
28/08:00pm 18.6 16.2 9.9 57 4.6 NNE 13 17 7 9 1016.2 1016.2 0.0
28/07:30pm 18.9 16.5 10.2 57 4.7 NNE 13 20 7 11 1015.9 1015.9 0.0
28/07:00pm 18.8 16.5 10.4 58 4.5 N 13 20 7 11 1015.5 1015.5 0.0
28/06:30pm 19.3 16.0 10.8 58 4.6 NE 19 28 10 15 1015.0 1015.0 0.0

Latest Capital City Observations: Canberra | Sydney | Melbourne | Brisbane | Adelaide | Perth | Hobart | Darwin

Other Formats:

Comma delimited format used in spreadsheet applications
http://www.bom.gov.au/fwo/IDN60901/IDN60901.94765.axf

JavaScript Object Notation format (JSON) in row-major order
http://www.bom.gov.au/fwo/IDN60901/IDN60901.94765.json